Location: B
(0.0000°N, 0.0000°E)
Time: 05:32:28
(UTC+01:00)

Amateur Radio Satellites - All Passes

Search period start: 22 February 2017 05:02
Search period end: 23 February 2017 05:02
Location: B, 0.0000°N, 0.0000°E

Satellite Date Start Highest point End Downlink Frequencies (MHz)
Time Altitude Azimuth
KKS-1 22 Feb 05:05:37 05:10:03 85° 80° (E) 05:14:27 437.445
RS-15 22 Feb 05:16:59 05:28:45 69° 69° (ENE) 05:39:53 29.354- 29.394
AO-7 22 Feb 05:21:53 05:28:47 30° 286° (WNW) 05:35:44 .
SRMSAT 22 Feb 05:36:14 05:38:46 13° 9° (N) 05:41:18 437.500
PCSat 22 Feb 05:40:44 05:44:19 18° 250° (WSW) 05:47:54 145.827
STARS 22 Feb 05:51:13 05:55:32 61° 258° (WSW) 05:59:49 437.465
CUTE-I 22 Feb 05:59:37 06:02:47 16° 103° (ESE) 06:05:56 437.470
M-CUBED/EXP-1 PRIME 22 Feb 06:05:41 06:09:21 50° 254° (WSW) 06:12:44 437.505
BEESAT 3 22 Feb 06:16:35 06:20:12 42° 112° (ESE) 06:23:50 437.485
XW-2F 22 Feb 06:24:50 06:28:08 29° 101° (E) 06:31:26 145.980 - 146.000
XW-2D 22 Feb 06:26:49 06:30:16 34° 101° (E) 06:33:43 145.860 - 145.880
KAITUO 1B 22 Feb 06:27:03 06:30:10 25° 101° (E) 06:33:16 145.475/437.950
XW-2B 22 Feb 06:31:39 06:35:12 40° 101° (E) 06:38:45 145.730 - 145.750
JUGNU 22 Feb 06:31:58 06:37:54 62° 21° (NNE) 06:43:50 437.505
CUBESAT XI-V 22 Feb 06:32:10 06:34:36 14° 258° (WSW) 06:37:02 437.345
XW-2C 22 Feb 06:39:57 06:43:40 57° 101° (E) 06:47:22 145.795 - 145.815
BEESAT 2 22 Feb 06:46:00 06:49:30 33° 112° (ESE) 06:53:01 435.950
LilacSat-2 22 Feb 06:52:22 06:56:10 82° 280° (W) 06:59:57 437.200
DOVE 4 22 Feb 06:55:42 07:00:41 77° 282° (WNW) 07:05:55 437.250
STRAND 1 22 Feb 06:57:54 06:59:52 12° 77° (ENE) 07:01:50 437.568
ISS 22 Feb 07:02:23 07:05:16 28° 125° (SE) 07:08:08 437.550
NUDT-PHONESAT 22 Feb 07:06:19 07:10:00 65° 281° (WNW) 07:13:41 437.300
SRMSAT 22 Feb 07:23:48 07:28:40 25° 17° (NNE) 07:33:30 437.500
CUTE 1.7 + AOD 2 22 Feb 07:32:21 07:35:15 18° 102° (ESE) 07:38:10 437.475
RS-15 22 Feb 07:33:21 07:40:40 19° 248° (WSW) 07:47:52 29.354- 29.394
Tancredo 1 22 Feb 07:37:01 07:40:15 68° 305° (NW) 07:43:28 437.200
CUTE-I 22 Feb 07:37:46 07:42:32 33° 283° (WNW) 07:47:19 437.470
XW-2A 22 Feb 07:48:56 07:52:20 62° 101° (E) 07:55:44 145.665 - 145.685
HO-68 22 Feb 08:13:44 08:20:51 77° 104° (ESE) 08:28:01 435.675
JUGNU 22 Feb 08:21:12 08:26:59 49° 200° (SSW) 08:32:46 437.505
ZACube-1 22 Feb 08:27:57 08:28:11 10° 101° (ESE) 08:28:24 437.345
STRAND 1 22 Feb 08:34:02 08:38:45 38° 257° (WSW) 08:43:29 437.568
SEEDS 22 Feb 08:35:55 08:40:03 82° 282° (WNW) 08:44:13 437.485
AAUSAT CUBESAT 2 22 Feb 08:37:19 08:41:07 38° 101° (ESE) 08:44:56 437.432
CUBEBUG 2 22 Feb 08:44:01 08:48:42 74° 102° (ESE) 08:53:17 437.445
CUTE 1.7 + AOD 2 22 Feb 09:08:10 09:10:49 17° 282° (WNW) 09:13:29 437.475
SRMSAT 22 Feb 09:12:08 09:18:03 65° 21° (NNE) 09:23:57 437.500
AO-73 22 Feb 09:14:42 09:18:57 46° 101° (ESE) 09:23:07 145.935
Oscar 11 22 Feb 09:26:13 09:30:26 58° 102° (ESE) 09:34:40 .
PRISM 22 Feb 09:28:29 09:31:35 20° 78° (ENE) 09:34:39 437.425
UWE-3 22 Feb 09:29:59 09:34:22 45° 282° (WNW) 09:38:39 435.000/436.395/437.385
ZACube-1 22 Feb 10:00:12 10:04:12 33° 282° (WNW) 10:08:09 437.345
UNISAT 6 22 Feb 10:03:20 10:06:27 19° 78° (ENE) 10:09:36 437.425
TIGRISAT 22 Feb 10:04:58 10:07:58 18° 78° (ENE) 10:11:00 435.000
JUGNU 22 Feb 10:12:00 10:16:20 20° 196° (SSW) 10:20:39 437.505
FO-29 22 Feb 10:33:21 10:38:04 23° 74° (ENE) 10:43:10 435.910
DELFI C3 22 Feb 10:44:27 10:48:05 38° 281° (W) 10:51:46 145.870
SO-50 22 Feb 10:47:42 10:52:02 53° 248° (WSW) 10:56:27 436.795
SRMSAT 22 Feb 11:01:36 11:07:16 46° 200° (SSW) 11:12:56 437.500
PRISM 22 Feb 11:04:20 11:06:35 14° 258° (WSW) 11:08:49 437.425
YUBILEINY 22 Feb 11:12:24 11:21:13 74° 93° (E) 11:30:00 435.215
UNISAT 6 22 Feb 11:40:05 11:42:53 17° 258° (WSW) 11:45:44 437.425
TIGRISAT 22 Feb 11:41:29 11:44:24 18° 258° (WSW) 11:47:20 435.000
O/OREOS (USA 219) 22 Feb 11:41:53 11:46:12 41° 256° (WSW) 11:50:32 437.305
DUCHIFAT 1 22 Feb 11:43:59 11:46:39 17° 78° (ENE) 11:49:19 145.980
EO-79 22 Feb 11:49:28 11:52:57 26° 78° (ENE) 11:56:26 145.935-145.965
JUGNU 22 Feb 12:04:38 12:06:13 11° 187° (S) 12:07:50 437.505
POLYITAN 1 22 Feb 12:05:13 12:09:14 45° 78° (ENE) 12:13:15 437.675
QB50P2 22 Feb 12:07:55 12:12:03 55° 78° (ENE) 12:16:09 145.880/145.840
NANOSAT C BR1 22 Feb 12:08:22 12:12:21 44° 78° (ENE) 12:16:20 145.865
SPROUT 22 Feb 12:09:24 12:11:49 15° 102° (ESE) 12:14:14 437.525
FO-29 22 Feb 12:17:31 12:22:45 32° 259° (W) 12:28:32 435.910
ESTCUBE 1 22 Feb 12:25:41 12:30:01 52° 282° (WNW) 12:34:22 437.505/2401.250
AIST 2D 22 Feb 12:38:05 12:40:48 21° 259° (W) 12:43:30 435.315
SRMSAT 22 Feb 12:52:39 12:56:47 19° 195° (SSW) 13:00:55 437.500
BUGSAT 1 22 Feb 12:55:10 12:59:01 46° 78° (ENE) 13:02:51 437.445
VELOX 1 22 Feb 13:07:14 13:11:34 57° 282° (WNW) 13:15:56 145.980
DX 1 22 Feb 13:11:12 13:15:27 55° 102° (ESE) 13:19:45 434.975-435.025
YUBILEINY 22 Feb 13:14:45 13:17:37 12° 273° (W) 13:20:28 435.215
DUCHIFAT 1 22 Feb 13:19:12 13:22:03 18° 258° (WSW) 13:24:54 145.980
50 SAT 22 Feb 13:20:17 13:23:35 43° 281° (WNW) 13:26:55 437.505
EO-79 22 Feb 13:26:59 13:28:27 12° 258° (WSW) 13:29:55 145.935-145.965
UKube-1 22 Feb 13:30:46 13:35:02 69° 101° (ESE) 13:39:21 .
SPROUT 22 Feb 13:44:08 13:47:27 22° 282° (WNW) 13:50:47 437.525
JUGNU 22 Feb 13:55:58 13:56:27 10° 176° (S) 13:56:57 437.505
Oscar 19 22 Feb 14:09:38 14:14:51 89° 267° (W) 14:20:01 437.125/150
Gurwin Techsat 1B 22 Feb 14:25:17 14:30:33 64° 77° (ENE) 14:35:48 435.225
SRMSAT 22 Feb 14:45:36 14:46:52 11° 186° (S) 14:48:07 437.500
ITUPSAT 1 22 Feb 15:19:38 15:24:21 63° 102° (ESE) 15:29:04 437.325
BEESAT 22 Feb 15:28:38 15:33:23 86° 100° (E) 15:38:10 436.000
JUGNU 22 Feb 15:42:42 15:46:26 17° 166° (SSE) 15:50:09 437.505
AO-7 22 Feb 15:54:36 16:02:49 59° 74° (ENE) 16:10:58 .
ITAMSAT 1 22 Feb 16:14:44 16:19:46 53° 257° (WSW) 16:24:49 435.822/435.867
MOZHAYETS 4 22 Feb 16:21:20 16:25:51 70° 282° (WNW) 16:30:24
AO-85 22 Feb 16:29:48 16:33:54 89° 63° (ENE) 16:38:20 145.980
PCSat 22 Feb 16:31:56 16:37:21 87° 289° (WNW) 16:42:45 145.827
SRMSAT 22 Feb 16:36:22 16:37:14 10° 175° (S) 16:38:07 437.500
RS-15 22 Feb 16:58:27 17:09:27 58° 110° (ESE) 17:20:59 29.354- 29.394
CUBESAT XI-V 22 Feb 17:11:12 17:15:37 49° 102° (ESE) 17:20:04 437.345
KKS-1 22 Feb 17:17:56 17:22:21 64° 282° (WNW) 17:26:49 437.445
JUGNU 22 Feb 17:30:26 17:35:52 39° 160° (SSE) 17:41:17 437.505
AO-7 22 Feb 17:50:01 17:55:07 18° 253° (WSW) 18:00:16 .
STARS 22 Feb 18:02:02 18:06:13 43° 282° (WNW) 18:10:26 437.465
M-CUBED/EXP-1 PRIME 22 Feb 18:03:26 18:07:31 62° 285° (WNW) 18:11:57 437.505
BEESAT 3 22 Feb 18:08:22 18:12:09 43° 69° (ENE) 18:15:53 437.485
XW-2F 22 Feb 18:18:24 18:21:29 24° 79° (E) 18:24:34 145.980 - 146.000
KAITUO 1B 22 Feb 18:19:47 18:22:34 20° 79° (ENE) 18:25:21 145.475/437.950
XW-2D 22 Feb 18:20:41 18:23:58 28° 79° (E) 18:27:15 145.860 - 145.880
SRMSAT 22 Feb 18:23:25 18:27:22 18° 165° (SSE) 18:31:18 437.500
XW-2B 22 Feb 18:25:30 18:28:56 32° 79° (ENE) 18:32:20 145.730 - 145.750
XW-2C 22 Feb 18:33:45 18:37:24 44° 79° (E) 18:41:03 145.795 - 145.815
ISS 22 Feb 18:36:47 18:39:01 17° 54° (NE) 18:41:14 437.550
CUTE-I 22 Feb 18:37:01 18:42:06 46° 77° (ENE) 18:47:09 437.470
BEESAT 2 22 Feb 18:38:59 18:42:41 36° 68° (ENE) 18:46:20 435.950
LilacSat-2 22 Feb 18:46:40 18:50:30 80° 78° (ENE) 18:54:21 437.200
NUDT-PHONESAT 22 Feb 18:57:59 19:01:42 89° 74° (ENE) 19:05:26 437.300
Tancredo 1 22 Feb 19:09:39 19:12:47 62° 55° (NE) 19:15:54 437.200
RS-15 22 Feb 19:12:53 19:21:36 25° 293° (WNW) 19:30:41 29.354- 29.394
DOVE 4 22 Feb 19:17:53 19:21:55 35° 258° (WSW) 19:25:46 437.250
JUGNU 22 Feb 19:19:04 19:24:55 76° 339° (NNW) 19:30:46 437.505
STRAND 1 22 Feb 19:27:55 19:32:24 31° 103° (ESE) 19:36:54 437.568
XW-2A 22 Feb 19:32:16 19:35:12 28° 79° (E) 19:38:08 145.665 - 145.685
CUTE 1.7 + AOD 2 22 Feb 19:38:10 19:41:35 23° 78° (ENE) 19:44:58 437.475
KAITUO 1B 22 Feb 19:54:56 19:56:19 12° 258° (WSW) 19:57:43 145.475/437.950
HO-68 22 Feb 20:05:24 20:12:32 66° 75° (ENE) 20:19:37 435.675
UWE-3 22 Feb 20:08:37 20:09:00 10° 77° (ENE) 20:09:22 435.000/436.395/437.385
SRMSAT 22 Feb 20:11:20 20:16:56 42° 160° (SSE) 20:22:32 437.500
ISS 22 Feb 20:13:33 20:15:16 14° 234° (SW) 20:16:58 437.550
CUTE-I 22 Feb 20:20:38 20:21:50 11° 257° (WSW) 20:23:03 437.470
ZACube-1 22 Feb 20:35:34 20:37:42 14° 78° (ENE) 20:39:51 437.345
AAUSAT CUBESAT 2 22 Feb 20:40:40 20:44:39 44° 79° (E) 20:48:37 437.432
SEEDS 22 Feb 20:41:03 20:45:18 69° 259° (WSW) 20:49:31 437.485
CUBEBUG 2 22 Feb 20:56:31 21:00:42 74° 259° (WSW) 21:04:59 437.445
STRAND 1 22 Feb 21:08:21 21:11:18 15° 283° (WNW) 21:14:16 437.568
JUGNU 22 Feb 21:09:06 21:14:03 28° 342° (NNW) 21:19:01 437.505
CUTE 1.7 + AOD 2 22 Feb 21:14:54 21:17:07 14° 258° (WSW) 21:19:21 437.475
SO-50 22 Feb 21:22:00 21:24:37 15° 113° (ESE) 21:27:13 436.795
AO-73 22 Feb 21:23:51 21:28:05 64° 78° (ENE) 21:32:23 145.935
PRISM 22 Feb 21:30:50 21:34:01 22° 102° (ESE) 21:37:14 437.425
Oscar 11 22 Feb 21:34:47 21:39:08 79° 79° (E) 21:43:29 .
UWE-3 22 Feb 21:41:26 21:45:08 30° 259° (WSW) 21:48:55 435.000/436.395/437.385
YUBILEINY 22 Feb 21:53:37 21:58:14 15° 87° (E) 22:02:51 435.215
HO-68 22 Feb 21:57:07 21:59:51 12° 254° (WSW) 22:02:35 435.675
SRMSAT 22 Feb 22:00:12 22:06:09 72° 339° (NNW) 22:12:07 437.500
FO-29 22 Feb 22:10:05 22:12:25 12° 100° (E) 22:14:40 435.910
ZACube-1 22 Feb 22:10:16 22:13:42 24° 259° (W) 22:17:11 437.345
O/OREOS (USA 219) 22 Feb 22:15:45 22:18:08 14° 105° (ESE) 22:20:30 437.305
UNISAT 6 22 Feb 22:15:46 22:19:50 31° 101° (ESE) 22:23:52 437.425
TIGRISAT 22 Feb 22:17:10 22:21:11 30° 101° (ESE) 22:25:09 435.000
DELFI C3 22 Feb 22:42:47 22:46:34 41° 259° (WSW) 22:50:19 145.870
SO-50 22 Feb 23:00:43 23:04:51 29° 292° (WNW) 23:08:57 436.795
JUGNU 22 Feb 23:00:53 23:03:40 13° 349° (N) 23:06:27 437.505
ESTCUBE 1 22 Feb 23:06:29 23:07:36 11° 78° (ENE) 23:08:43 437.505/2401.250
PRISM 22 Feb 23:07:07 23:09:03 13° 282° (WNW) 23:10:59 437.425
YUBILEINY 22 Feb 23:46:09 23:54:37 60° 267° (W) 00:03:10 435.215
DUCHIFAT 1 22 Feb 23:48:50 23:51:58 20° 102° (ESE) 23:55:06 145.980
SRMSAT 22 Feb 23:50:31 23:55:31 27° 342° (NNW) 00:00:32 437.500
FO-29 22 Feb 23:50:34 23:57:25 58° 284° (WNW) 00:03:30 435.910
O/OREOS (USA 219) 22 Feb 23:53:43 23:57:15 23° 284° (WNW) 00:00:47 437.305
UNISAT 6 22 Feb 23:54:30 23:56:14 12° 283° (WNW) 23:58:00 437.425
EO-79 22 Feb 23:55:09 23:58:57 32° 102° (ESE) 00:02:46 145.935-145.965
TIGRISAT 22 Feb 23:55:33 23:57:34 13° 282° (WNW) 23:59:34 435.000
POLYITAN 1 23 Feb 00:11:15 00:15:27 57° 102° (ESE) 00:19:38 437.675
NANOSAT C BR1 23 Feb 00:13:49 00:17:59 55° 102° (ESE) 00:22:09 145.865
QB50P2 23 Feb 00:14:00 00:18:15 70° 102° (ESE) 00:22:30 145.880/145.840
SPROUT 23 Feb 00:16:04 00:18:59 18° 78° (ENE) 00:21:54 437.525
AIST 2D 23 Feb 00:23:44 00:26:58 35° 281° (W) 00:30:13 435.315
ESTCUBE 1 23 Feb 00:40:03 00:44:08 33° 258° (WSW) 00:48:12 437.505/2401.250
BUGSAT 1 23 Feb 00:57:51 01:01:59 53° 102° (ESE) 01:06:08 437.445
50 SAT 23 Feb 01:05:56 01:09:29 83° 259° (WSW) 01:13:00 437.505
Oscar 19 23 Feb 01:06:45 01:09:22 14° 103° (ESE) 01:11:59 437.125/150
VELOX 1 23 Feb 01:19:05 01:23:10 38° 258° (WSW) 01:27:15 145.980
DX 1 23 Feb 01:20:47 01:25:08 76° 78° (ENE) 01:29:27 434.975-435.025
DUCHIFAT 1 23 Feb 01:24:49 01:27:22 16° 282° (WNW) 01:29:55 145.980
Gurwin Techsat 1B 23 Feb 01:27:38 01:29:19 11° 103° (ESE) 01:31:01 435.225
UKube-1 23 Feb 01:39:13 01:43:32 89° 272° (W) 01:47:49 .
SRMSAT 23 Feb 01:42:33 01:45:21 13° 350° (N) 01:48:11 437.500
SPROUT 23 Feb 01:51:51 01:54:38 17° 258° (WSW) 01:57:25 437.525
JUGNU 23 Feb 02:41:18 02:43:56 13° 10° (N) 02:46:35 437.505
Oscar 19 23 Feb 02:43:48 02:48:23 34° 282° (WNW) 02:53:01 437.125/150
Gurwin Techsat 1B 23 Feb 03:03:57 03:08:58 44° 282° (WNW) 03:14:00 435.225
ITAMSAT 1 23 Feb 03:11:19 03:15:32 25° 103° (ESE) 03:19:44 435.822/435.867
PCSat 23 Feb 03:26:34 03:30:21 19° 70° (ENE) 03:34:08 145.827
ITUPSAT 1 23 Feb 03:41:52 03:46:37 65° 258° (WSW) 03:51:21 437.325
BEESAT 23 Feb 03:50:40 03:55:16 48° 258° (WSW) 03:59:50 436.000
AO-7 23 Feb 04:20:49 04:29:07 88° 286° (WNW) 04:37:26 .
JUGNU 23 Feb 04:28:41 04:33:37 27° 18° (NNE) 04:38:36 437.505
MOZHAYETS 4 23 Feb 04:38:11 04:42:31 40° 258° (WSW) 04:46:51
STARS 23 Feb 04:39:49 04:40:58 11° 78° (ENE) 04:42:08 437.465
AO-85 23 Feb 04:42:37 04:47:32 48° 291° (WNW) 04:52:08 145.980
ITAMSAT 1 23 Feb 04:50:58 04:54:43 20° 283° (WNW) 04:58:28 435.822/435.867
